Regional Weather Roundup
Issued by NWS

Home | Current Version | Previous Version | Graphics & Text | Print | Product List | Glossary Off
Versions: 1 2 3 4 5 6 7 8 9 10 11 12 13 14 15 16 17 18 19 20 21 22 23 24 25 26 27 28 29 30 31 32 33 34 35 36 37 38 39 40 41 42 43 44 45 46 47 48 49 50

000
ASUS45 KBOU 301910
RWRCO

WEATHER ROUNDUP FOR COLORADO
NATIONAL WEATHER SERVICE PUEBLO CO
100 PM MDT THU JUL 30 2015

NOTE: "FAIR" INDICATES FEW OR NO CLOUDS BELOW 12000 FEET WITH NO
SIGNIFICANT WEATHER AND/OR OBSTRUCTIONS TO VISIBILITY.

COZ001>005-013-030-031-302000-
...NORTHWEST COLORADO...

CITY           SKY/WX    TMP DP  RH WIND       PRES   REMARKS
CRAIG          SUNNY     86  16   7 MISG      30.39F
HAYDEN         SUNNY     81  21  11 CALM      30.41F
MEEKER         SUNNY     84  27  12 VRB6      30.39F
MOUNT WERNER   NOT AVBL
STEAMBOAT SPGS FAIR      79  21  12 CALM      30.44F
WALDEN         FAIR      73  18  12 NW6       30.54F
$$

COZ006>008-011-302000-
...WEST CENTRAL VALLEYS...

CITY           SKY/WX    TMP DP  RH WIND       PRES   REMARKS
GRAND JUNCTION SUNNY     87  37  17 W8        30.28F
MONTROSE       SUNNY     86  39  19 W9        30.35F
EAGLE          SUNNY     82  23  11 CALM      30.42F
RIFLE          SUNNY     86  30  13 NW8       30.32F
DELTA          NOT AVBL
NUCLA          FAIR      84  36  17 W8        30.39F
$$

COZ017>023-064>068-302000-
...SOUTHWEST COLORADO...

CITY           SKY/WX    TMP DP  RH WIND       PRES   REMARKS
DURANGO        SUNNY     79  49  34 W7        30.41F
CORTEZ         SUNNY     81  47  30 VRB3      30.36F
PAGOSA SPRINGS PTSUNNY   76  41  28 CALM      30.48F
TELLURIDE      MOSUNNY   74  32  20 W8G16     30.59F
WOLF CREEK PAS NOT AVBL
$$

COZ009-010-012-014-032>034-037-058>063-302000-
...CENTRAL COLORADO...

CITY           SKY/WX    TMP DP  RH WIND       PRES   REMARKS
ASPEN          SUNNY     80  29  15 N7G16     30.49F
BUENA VISTA    FAIR      77  30  17 E3        30.50F
COPPER MTN     SUNNY     63  18  17 W14G20    30.83S
BERTHOUD PASS  FAIR      52  43  71 N7        30.88S
COTTONWOOD PAS SUNNY     77  28  16 CALM      30.66S
GUNNISON       SUNNY     77  36  22 S8        30.49F
KREMMLING      SUNNY     81   3   5 S3        30.49F
LEADVILLE      SUNNY     70  21  15 W6        30.63F
MONARCH PASS   MOSUNNY   59  30  33 E16G22    30.90F
SALIDA         FAIR      82  38  21 SE6       30.53F
NIWOT RIDGE    NOT AVBL
SUNLIGHT       SUNNY     64  27  24 N3        30.77S
WILKERSON PASS MOSUNNY   61  32  33 E7        30.80S
$$

COZ069>075-302000-
...SAN LUIS VALLEY/SANGRE DE CRISTO MOUNTAINS...

CITY           SKY/WX    TMP DP  RH WIND       PRES   REMARKS
ALAMOSA        MOSUNNY   75  49  39 S7        30.47F
LA VETA PASS     N/A     64  46  52 MISG      30.67F
SAGUACHE       SUNNY     73  48  40 S6        30.50F
$$

COZ035-036-038>040-302000-
...NORTHERN COLORADO FRONT RANGE...

CITY           SKY/WX    TMP DP  RH WIND       PRES   REMARKS
DENVER INTL AP MOSUNNY   87  48  25 N9G17     30.33F
DMNS CITY PARK NOT AVBL
AURORA         NOT AVBL
FRONT RANGE AP MOSUNNY   84  46  26 NW7       30.35F
ERIE MUNI ARPT FAIR      87  38  17 E12G18    30.32F
BOULDER MUN AP FAIR      86  43  22 N10       30.33F
CENTENNIAL     MOSUNNY   83  46  27 NW8       30.37F
BROOMFIELD     MOSUNNY   84  45  24 NE12      30.36F
LOVELAND       SUNNY     86  54  32 NE10      30.31F
LONGMONT       FAIR      89  48  24 NE10      30.33F
$$

COZ041-046-047-076>085-087-088-302000-
...PIKES PEAK/PALMER DIVIDE AND SOUTHERN FOOTHILLS...

CITY           SKY/WX    TMP DP  RH WIND       PRES   REMARKS
COLO. SPRINGS  MOSUNNY   81  51  35 E9        30.39F
A. F. ACADEMY  NOT AVBL
ELLICOTT       FAIR     N/A N/A N/A S8        30.38F
FALCON         FAIR      80  49  34 E5        30.46S
FORT CARSON    NOT AVBL
LIMON          MOSUNNY   82  58  43 SE14G20   30.35F
MONUMENT HILL  NOT AVBL
TRINIDAD       PTSUNNY   80  52  37 VRB6      30.37S
$$

COZ042>045-048>051-090-091-302000-
...NORTHEAST COLORADO...

CITY           SKY/WX    TMP DP  RH WIND       PRES   REMARKS
GREELEY ARPT   SUNNY     84  55  37 E7        30.30F
AKRON          SUNNY     86  56  35 VRB7G18   30.30F
BURLINGTON     SUNNY     84  61  45 S9        30.31F
WRAY           FAIR      89  59  36 SE15      30.27S
STERLING       NOT AVBL
HOLYOKE        NOT AVBL
FORT MORGAN    FAIR      86  54  32 SE3       30.30F
$$

COZ086-089-092>099-302000-
...SOUTHEAST COLORADO...

CITY           SKY/WX    TMP DP  RH WIND       PRES   REMARKS
PUEBLO         SUNNY     87  54  32 VRB7      30.28F
LA JUNTA       MOSUNNY   85  54  34 VRB6      30.28F
LAMAR          PTSUNNY   87  62  43 SE14      30.25F
SPRINGFIELD      N/A     78  57  48 E9        30.31F
$$



USA.gov is the U.S. government's official web portal to all federal, state and local government web resources and services.